User: anonymous   Login
Location: Lawrence Hall of Science
(37.8785°N, 122.2415°W)
Time: 00:57:34
(UTC-07:00)
Language:

Cosmos 1461 - Orbit

View from above orbital plane
View from above orbital plane
View from above satellite
View from above satellite

Ground track
Ground track

The orbit data is extracted from the following two-line orbital elements,

1 14064U 83044A   15243.19849560  .00001245  00000-0  12174-3 0  9991
2 14064 065.0032 152.4099 0122381 299.9646 058.9364 14.91831226625426
Epoch (UTC): 31 August 2015 04:45:50
Eccentricity: 0.0122381
inclination: 65.0032°
perigee height: 507 km
apogee height: 677 km
right ascension of ascending node: 152.4099°
argument of perigee: 299.9646°
revolutions per day: 14.91831226
mean anomaly at epoch: 58.9364°
orbit number at epoch: 62542

The dashed part of the orbit path shows where the satellite is in the earth's shadow,  

DLR